TimeEST,TemperatureF,Dew PointF,Humidity,Sea Level PressureIn,VisibilityMPH,Wind Direction,Wind SpeedMPH,Gust SpeedMPH,PrecipitationIn,Events,Conditions,WindDirDegrees,DateUTC
12:16 AM,21.2,19.4,93,30.55,10.0,Calm,Calm,-,N/A,,Clear,0,2012-11-14 05:16:00
12:36 AM,21.2,19.4,93,30.55,10.0,Calm,Calm,-,N/A,,Clear,0,2012-11-14 05:36:00
12:56 AM,21.2,19.4,93,30.55,10.0,Calm,Calm,-,N/A,,Clear,0,2012-11-14 05:56:00
1:16 AM,21.2,19.4,93,30.55,10.0,Calm,Calm,-,N/A,,Clear,0,2012-11-14 06:16:00
1:36 AM,21.2,19.4,93,30.55,10.0,Calm,Calm,-,N/A,,Clear,0,2012-11-14 06:36:00
1:56 AM,21.2,19.4,93,30.55,10.0,Calm,Calm,-,N/A,,Clear,0,2012-11-14 06:56:00
2:16 AM,21.2,19.4,93,30.55,10.0,Calm,Calm,-,N/A,,Clear,0,2012-11-14 07:16:00
2:36 AM,21.2,19.4,93,30.56,10.0,Calm,Calm,-,N/A,,Clear,0,2012-11-14 07:36:00
2:56 AM,21.2,19.4,93,30.55,10.0,Calm,Calm,-,N/A,,Clear,0,2012-11-14 07:56:00
3:16 AM,19.4,19.4,100,30.55,10.0,Calm,Calm,-,N/A,,Clear,0,2012-11-14 08:16:00
3:36 AM,21.2,19.4,93,30.55,7.0,Calm,Calm,-,N/A,,Clear,0,2012-11-14 08:36:00
3:56 AM,19.4,19.4,100,30.55,7.0,Calm,Calm,-,N/A,,Clear,0,2012-11-14 08:56:00
4:16 AM,19.4,17.6,93,30.55,10.0,Calm,Calm,-,N/A,,Clear,0,2012-11-14 09:16:00
4:36 AM,19.4,17.6,93,30.56,7.0,Calm,Calm,-,N/A,,Clear,0,2012-11-14 09:36:00
4:56 AM,19.4,17.6,93,30.56,7.0,Calm,Calm,-,N/A,,Clear,0,2012-11-14 09:56:00
5:16 AM,19.4,17.6,93,30.57,10.0,Calm,Calm,-,N/A,,Clear,0,2012-11-14 10:16:00
5:36 AM,19.4,17.6,93,30.57,10.0,Calm,Calm,-,N/A,,Clear,0,2012-11-14 10:36:00
5:56 AM,19.4,17.6,93,30.57,10.0,Calm,Calm,-,N/A,,Clear,0,2012-11-14 10:56:00
6:16 AM,17.6,15.8,93,30.57,10.0,Calm,Calm,-,N/A,,Clear,0,2012-11-14 11:16:00
6:36 AM,17.6,15.8,93,30.58,10.0,Calm,Calm,-,N/A,,Clear,0,2012-11-14 11:36:00
6:56 AM,17.6,15.8,93,30.58,10.0,Calm,Calm,-,N/A,,Clear,0,2012-11-14 11:56:00
7:16 AM,17.6,15.8,93,30.59,7.0,Calm,Calm,-,N/A,,Clear,0,2012-11-14 12:16:00
7:36 AM,17.6,15.8,93,30.59,7.0,Calm,Calm,-,N/A,,Clear,0,2012-11-14 12:36:00
7:56 AM,17.6,17.6,100,30.59,10.0,Calm,Calm,-,N/A,,Clear,0,2012-11-14 12:56:00
8:16 AM,21.2,19.4,93,30.59,7.0,Calm,Calm,-,N/A,,Clear,0,2012-11-14 13:16:00
8:36 AM,23.0,21.2,93,30.59,10.0,Calm,Calm,-,N/A,,Clear,0,2012-11-14 13:36:00
8:56 AM,24.8,23.0,93,30.60,10.0,Calm,Calm,-,N/A,,Clear,0,2012-11-14 13:56:00
9:16 AM,28.4,24.8,86,30.59,10.0,Calm,Calm,-,N/A,,Clear,0,2012-11-14 14:16:00
9:36 AM,32.0,26.6,80,30.59,10.0,Calm,Calm,-,N/A,,Clear,0,2012-11-14 14:36:00
9:56 AM,32.0,21.2,64,30.59,10.0,Calm,Calm,-,N/A,,Clear,0,2012-11-14 14:56:00
10:16 AM,33.8,23.0,65,30.60,10.0,Calm,Calm,-,N/A,,Clear,0,2012-11-14 15:16:00
10:36 AM,35.6,21.2,56,30.60,10.0,Calm,Calm,-,N/A,,Clear,0,2012-11-14 15:36:00
10:56 AM,37.4,23.0,56,30.59,10.0,SSE,3.5,-,N/A,,Clear,160,2012-11-14 15:56:00
11:16 AM,37.4,24.8,60,30.59,10.0,Calm,Calm,-,N/A,,Clear,0,2012-11-14 16:16:00
11:36 AM,37.4,23.0,56,30.58,10.0,Calm,Calm,-,N/A,,Clear,0,2012-11-14 16:36:00
11:56 AM,39.2,23.0,52,30.57,10.0,SSW,3.5,-,N/A,,Clear,200,2012-11-14 16:56:00
12:16 PM,39.2,23.0,52,30.56,10.0,South,4.6,-,N/A,,Mostly Cloudy,190,2012-11-14 17:16:00
12:36 PM,39.2,23.0,52,30.55,10.0,Calm,Calm,-,N/A,,Scattered Clouds,0,2012-11-14 17:36:00
12:56 PM,39.2,24.8,56,30.54,10.0,SSW,3.5,-,N/A,,Clear,210,2012-11-14 17:56:00
1:16 PM,39.2,24.8,56,30.54,10.0,ESE,3.5,-,N/A,,Clear,110,2012-11-14 18:16:00
1:36 PM,39.2,24.8,56,30.54,10.0,WSW,3.5,-,N/A,,Clear,240,2012-11-14 18:36:00
1:56 PM,39.2,24.8,56,30.53,10.0,SSE,5.8,-,N/A,,Mostly Cloudy,160,2012-11-14 18:56:00
2:16 PM,39.2,24.8,56,30.52,10.0,South,4.6,-,N/A,,Overcast,170,2012-11-14 19:16:00
2:36 PM,39.2,24.8,56,30.52,10.0,Calm,Calm,-,N/A,,Mostly Cloudy,0,2012-11-14 19:36:00
2:56 PM,39.2,24.8,56,30.52,10.0,South,3.5,-,N/A,,Mostly Cloudy,180,2012-11-14 19:56:00
3:16 PM,39.2,24.8,56,30.51,10.0,East,3.5,-,N/A,,Scattered Clouds,90,2012-11-14 20:16:00
3:36 PM,39.2,26.6,61,30.51,10.0,SSE,4.6,-,N/A,,Clear,160,2012-11-14 20:36:00
3:56 PM,39.2,24.8,56,30.51,10.0,SSE,3.5,-,N/A,,Clear,150,2012-11-14 20:56:00
4:16 PM,39.2,26.6,61,30.50,10.0,SSE,3.5,-,N/A,,Clear,160,2012-11-14 21:16:00
4:36 PM,37.4,26.6,65,30.50,10.0,SSE,3.5,-,N/A,,Clear,150,2012-11-14 21:36:00
4:56 PM,37.4,26.6,65,30.49,10.0,SSE,3.5,-,N/A,,Clear,150,2012-11-14 21:56:00
5:16 PM,35.6,24.8,65,30.49,10.0,SE,3.5,-,N/A,,Clear,140,2012-11-14 22:16:00
5:36 PM,33.8,26.6,75,30.49,10.0,ESE,3.5,-,N/A,,Clear,120,2012-11-14 22:36:00
5:56 PM,32.0,26.6,80,30.49,10.0,Calm,Calm,-,N/A,,Clear,0,2012-11-14 22:56:00
6:16 PM,32.0,26.6,80,30.49,10.0,Calm,Calm,-,N/A,,Clear,0,2012-11-14 23:16:00
6:36 PM,32.0,24.8,75,30.49,10.0,Calm,Calm,-,N/A,,Clear,0,2012-11-14 23:36:00
6:56 PM,28.4,24.8,86,30.49,10.0,Calm,Calm,-,N/A,,Clear,0,2012-11-14 23:56:00
7:16 PM,28.4,24.8,86,30.49,10.0,Calm,Calm,-,N/A,,Clear,0,2012-11-15 00:16:00
7:36 PM,28.4,24.8,86,30.49,10.0,Calm,Calm,-,N/A,,Clear,0,2012-11-15 00:36:00
7:56 PM,28.4,24.8,86,30.49,10.0,Calm,Calm,-,N/A,,Clear,0,2012-11-15 00:56:00
8:16 PM,28.4,24.8,86,30.48,10.0,Calm,Calm,-,N/A,,Clear,0,2012-11-15 01:16:00
8:36 PM,26.6,24.8,93,30.47,10.0,Calm,Calm,-,N/A,,Clear,0,2012-11-15 01:36:00
8:56 PM,28.4,26.6,93,30.47,10.0,Calm,Calm,-,N/A,,Clear,0,2012-11-15 01:56:00
9:16 PM,26.6,23.0,86,30.47,10.0,Calm,Calm,-,N/A,,Clear,0,2012-11-15 02:16:00
9:36 PM,26.6,24.8,93,30.47,7.0,Calm,Calm,-,N/A,,Clear,0,2012-11-15 02:36:00
9:56 PM,26.6,24.8,93,30.47,10.0,Calm,Calm,-,N/A,,Clear,0,2012-11-15 02:56:00
10:16 PM,26.6,24.8,93,30.47,10.0,Calm,Calm,-,N/A,,Clear,0,2012-11-15 03:16:00
10:36 PM,26.6,24.8,93,30.46,10.0,Calm,Calm,-,N/A,,Clear,0,2012-11-15 03:36:00
10:56 PM,28.4,24.8,86,30.46,10.0,Calm,Calm,-,N/A,,Clear,0,2012-11-15 03:56:00
11:16 PM,26.6,24.8,93,30.45,10.0,Calm,Calm,-,N/A,,Clear,0,2012-11-15 04:16:00
11:36 PM,26.6,24.8,93,30.45,10.0,Calm,Calm,-,N/A,,Clear,0,2012-11-15 04:36:00
11:56 PM,26.6,24.8,93,30.44,10.0,Calm,Calm,-,N/A,,Clear,0,2012-11-15 04:56:00